This is the latest recevied weather packets stored in our database for station/object WA6TJQ. If no packets are shown the sender has not sent any weather packets the latest 10 day(s).
| Time | Temp. | Humidity | Pressure | Rain* | Wind** | Luminosity | Snow |
|---|---|---|---|---|---|---|---|
| 1777757024 | 22.22° C | 24% | 1011.1 hPa | 0 mm | - | - | - |
| 1777756724 | 22.22° C | 27% | 1011.2 hPa | 0 mm | - | - | - |
| 1777756424 | 21.67° C | 27% | 1011.3 hPa | 0 mm | - | - | - |
| 1777756124 | 21.67° C | 23% | 1011.1 hPa | 0 mm | - | - | - |
| 1777755824 | 21.67° C | 24% | 1011.2 hPa | 0 mm | - | - | - |
| 1777755523 | 21.67° C | 25% | 1011.3 hPa | 0 mm | - | - | - |
| 1777755223 | 21.67° C | 21% | 1011.4 hPa | 0 mm | - | - | - |
| 1777754924 | 21.67° C | 22% | 1011.4 hPa | 0 mm | - | - | - |
| 1777754624 | 21.11° C | 23% | 1011.2 hPa | 0 mm | - | - | - |
| 1777754323 | 21.11° C | 25% | 1011.4 hPa | 0 mm | - | - | - |
| 1777754023 | 21.11° C | 21% | 1011.4 hPa | 0 mm | - | - | - |
| 1777753723 | 21.11° C | 22% | 1011.5 hPa | 0 mm | - | - | - |
| 1777753424 | 21.11° C | 24% | 1011.5 hPa | 0 mm | - | - | - |
| 1777753123 | 21.11° C | 20% | 1011.6 hPa | 0 mm | - | - | - |
| 1777752823 | 21.11° C | 21% | 1011.6 hPa | 0 mm | - | - | - |
| 1777752523 | 21.11° C | 20% | 1011.7 hPa | 0 mm | - | - | - |
| 1777752223 | 21.11° C | 21% | 1011.8 hPa | 0 mm | - | - | - |
| 1777751923 | 21.11° C | 22% | 1011.8 hPa | 0 mm | - | - | - |
| 1777751623 | 21.11° C | 21% | 1011.7 hPa | 0 mm | - | - | - |
| 1777751323 | 21.11° C | 23% | 1011.9 hPa | 0 mm | - | - | - |
| 1777751023 | 21.11° C | 24% | 1012 hPa | 0 mm | - | - | - |
| 1777750723 | 21.11° C | 24% | 1012 hPa | 0 mm | - | - | - |
| 1777750423 | 21.11° C | 25% | 1012.1 hPa | 0 mm | - | - | - |
| 1777750123 | 21.11° C | 24% | 1012.1 hPa | 0 mm | - | - | - |
| 1777749823 | 21.11° C | 25% | 1012.1 hPa | 0 mm | - | - | - |
* Rain latest hour (hover to see other rain measurements)
** Current wind speed in m/s (hover to see current wind gust speed)